Voltar ao catálogo

COSMOS 2251 DEB

AtivoVLEO
NORAD 33821·DEBRIS·🇷🇺 Russia

Lançado Jun 16, 1993 de Plesetsk Cosmodrome

Loading…

Próximas Passagens (próximas 24 horas)

TLE

AtualizadoSource: Space-Track

Época: Sep 14, 2026, 10:40 UTC

1 33821U 93036BN  26257.44487865  .00030232  00000-0  64308-3 0  9990
2 33821  74.0207 271.1526 0034735 235.3940 124.3992 15.44176559792310

Acompanhe COSMOS 2251 DEB em tempo real com AllMySat

Download on the App Store